Regional Weather Roundup
Issued by NWS

Home | Current Version | Previous Version | Graphics & Text | Print | Product List | Glossary On
Versions: 1 2 3 4 5 6 7 8 9 10 11 12 13 14 15 16 17 18 19 20 21 22 23 24 25 26 27 28 29 30 31 32 33 34 35 36 37 38 39 40 41 42 43 44 45 46 47 48 49 50
000
ASUS43 KDTX 280110
RWRMI
MICHIGAN HOURLY REGIONAL WEATHER ROUNDUP
NATIONAL WEATHER SERVICE DETROIT/PONTIAC MI
800 PM EST THU NOV 27 2014

NOTE: "FAIR" INDICATES FEW OR NO CLOUDS BELOW 12,000 FEET WITH NO
SIGNIFICANT WEATHER AND/OR OBSTRUCTION TO VISIBILITY.

MIZ047>049-052>055-059>063-066>070-074>076-081>083-280200-
SOUTHEAST LOWER MICHIGAN

CITY           SKY/WX    TMP DP  RH WIND       PRES   REMARKS
ADRIAN         CLOUDY    27  22  81 N5        30.28R
ALMA           CLOUDY    22  13  69 NW9       30.30S
ANN ARBOR      CLOUDY    27  17  66 NW9       30.26R
BAD AXE        CLOUDY    23  15  71 NW14      30.25R
DETROIT CITY   PTCLDY    30  17  58 NW8       30.26R
DETROIT        MOCLDY    27  19  72 NW9       30.27R
FLINT          CLOUDY    27  16  63 NW14      30.27R
GROSSE ILE     MOCLDY    30  21  69 NW12G18   30.25R
HILLSDALE      CLOUDY    25  19  78 NW13      30.27R
HOWELL         FLURRIES  25  18  74 NW14      30.26R

CITY           SKY/WX    TMP DP  RH WIND       PRES   REMARKS
JACKSON        CLOUDY    24  16  71 NW9G21    30.29R
LAMBERTVILLE   FLURRIES  30  27  86 NW7       30.28R
LANSING        MOCLDY    23  14  68 NW10      30.30R
LAPEER         NOT AVBL
MASON          CLOUDY    24  15  67 NW12      30.29R
MONROE         CLOUDY    28  23  80 NW12      30.26R
MT. CLEMENS    CLOUDY    28  17  63 NW7       30.23R
PONTIAC        FLURRIES  26  16  65 NW10      30.23R
PORT HOPE        N/A     24  11  57 NW14G26   30.23R
PORT HURON     CLOUDY    27  18  69 NW6       30.24S
TRI CITIES     PTCLDY    23  12  62 NW10      30.30R
YPSILANTI      MOCLDY    29  17  61 NW7       30.27R
$$
MIZ043>046-050>051-056>058-064>065-071>073-077>080-280200-
SOUTHWEST LOWER MICHIGAN

CITY           SKY/WX    TMP DP  RH WIND       PRES   REMARKS
BATTLE CREEK   CLOUDY    24  13  62 NW9       30.32R
BENTON HARBOR  LGT SNOW  25  16  68 VRB7G17   30.35S
BIG RAPIDS     FLURRIES  19  14  80 NW5       30.30S
COLDWATER      MOCLDY    26  18  71 NW12G20   30.30R
HOLLAND        FLURRIES  23  17  78 NE6       30.35R
GRAND RAPIDS   CLOUDY    22  13  68 NW12      30.33R
KALAMAZOO      CLOUDY    23  16  74 N15       30.33R
MARSHALL       CLOUDY    23  16  74 NW6       30.30R
MUSKEGON       FLURRIES  22   9  57 N9        30.36R
$$
MIZ016>042-280200-
NORTHERN LOWER MICHIGAN

CITY           SKY/WX    TMP DP  RH WIND       PRES   REMARKS
ALPENA         CLOUDY    16   8  71 NW8G17    30.24R
BEAVER ISLAND  CLOUDY    19   9  66 NW8G20    30.29F
BELLAIRE       CLOUDY    20  14  77 NW5       30.30S
CADILLAC       CLOUDY    16  11  82 W6        30.25S
CHARLEVOIX     CLOUDY    19  10  66 NW16      30.32S
FRANKFORT      FLURRIES  20  12  72 NW8       30.33S
GAYLORD        LGT SNOW  15  10  80 NW6       30.22R
GRAYLING       CLOUDY    16  12  84 NW5       30.24S
HARBOR SPRINGS CLOUDY    18   8  64 NW8       30.28R
HOUGHTON LAKE  CLOUDY    17  13  84 W9        30.25R
MANISTEE       CLOUDY    19   7  58 NW8       30.33S
OSCODA         MOCLDY    19  10  68 NW8G20    30.26R
PELLSTON       MOCLDY    17   7  64 NW13      30.28R
TRAVERSE CITY  FLURRIES  20  12  71 W14       30.30S
$$
MIZ007>008-015-280200-
EASTERN UPPER MICHIGAN

CITY           SKY/WX    TMP DP  RH WIND       PRES   REMARKS
KINROSS        CLOUDY    14  12  92 W6        30.23S
MACKINAC ISLAN PTCLDY    16  10  80 NW12G21   30.25S
NEWBERRY       LGT SNOW  13  10  89 NW7       30.26S
S. S. MARIE    MOCLDY    12   4  70 N9        30.25R
$$
MIZ004>006-011>014-085-280200-
CENTRAL UPPER MICHIGAN

CITY           SKY/WX    TMP DP  RH WIND       PRES   REMARKS
MANISTIQUE     FLURRIES  10   6  87 W7        30.31R
ESCANABA       CLEAR      9   0  66 NW5       30.35R
MENOMINEE      CLEAR      5   0  78 CALM      30.36S
SAWYER-GWINN   PTCLDY     3  -2  78 W7        30.29S
$$
MIZ001>003-009>011-084-280200-
WESTERN UPPER MICHIGAN

CITY           SKY/WX    TMP DP  RH WIND       PRES   REMARKS
IRON MOUNTAIN  CLEAR     -1  -5  82 CALM      30.31S
HOUGHTON       LGT SNOW   9   3  77 SW3       30.29S
COPPER HARBOR    N/A     17  12  80 N14       30.32S
IRONWOOD       MOCLDY    -4  -4 100 CALM      30.29F
$$

ABBREVIATIONS USED IN REMARKS
   TC - TEMPERATURE IN CELSIUS
  WCI - WIND CHILL INDEX
   HX - HEAT INDEX
  VSB - VISIBILITY



USA.gov is the U.S. government's official web portal to all federal, state and local government web resources and services.